Maxwelton, WV

5:01 AM EST on February 06, 2016 (GMT -0500)
Greenbrier Valley

Weather History for KLWB - May, 2014

Change the Weather History Date:

Monday, May 5, 2014

  Actual Average Record
Temperature  
Mean Temperature 56 °F 56 °F  
Max Temperature 69 °F 69 °F 81 °F (2000)
Min Temperature 43 °F 43 °F 32 °F (2005)
Degree Days  
Heating Degree Days 9    
Month to date heating degree days 51  
Since 1 July heating degree days  
Cooling Degree Days 0    
Month to date cooling degree days 0  
Year to date cooling degree days 0  
Growing Degree Days 6 (Base 50)    
Moisture  
Dew Point 43 °F    
Average Humidity 66    
Maximum Humidity 83    
Minimum Humidity 48    
Precipitation  
Precipitation 0.00 in - 1.05 in (1958)
Month to date precipitation 0.00  
Year to date precipitation 7.86  
Snow  
Snow 0.00 in - - ()
Month to date snowfall 0.0  
Since 1 July snowfall  
Snow Depth 0.00 in    
Sea Level Pressure  
Sea Level Pressure 29.97 in    
Wind  
Wind Speed 3 mph (NNE)    
Max Wind Speed 18 mph    
Max Gust Speed 24 mph    
Visibility 10 miles    
Events Thunderstorm    
T = Trace of Precipitation, MM = Missing Value Source: NWS Daily Summary

Daily Weather History Graph

Daily Weather History Graph

Search for Another Location

Airport or City:

Trip Planner

Search our weather history database for the weather conditions in past years. The results will help you decide how hot, cold, wet, or windy it might be!

Date:

Astronomy

May. 05, 2014 Rise Set
Actual Time 6:21 AM EDT 8:15 PM EDT
Civil Twilight 5:52 AM EDT 8:44 PM EDT
Nautical Twilight 5:17 AM EDT 9:19 PM EDT
Astronomical Twilight 4:40 AM EDT 9:56 PM EDT
Moon 11:39 AM EDT (5/5) 12:59 AM EDT (5/5)
Length of Visible Light 14h 51m
Length of Day
13h 54m
Waxing Crescent, 36% of the Moon is Illuminated
May 5
Waxing Crescent
May 6
First Quarter
May 14
Full
May 21
Last Quarter
May 28
New

Hourly Weather History & Observations

Time (EDT) Temp. Windchill Dew Point Humidity Pressure Visibility Wind Dir Wind Speed Gust Speed Precip Events Conditions
12:15 AM 55.9 °F - 40.3 °F 56% 30.00 in 10.0 mi NNW 8.1 mph - N/A   Clear
12:55 AM 55.0 °F - 37.6 °F 52% 30.00 in 10.0 mi WNW 3.5 mph - N/A   Clear
1:15 AM 54.5 °F - 36.9 °F 51% 30.01 in 10.0 mi WNW 3.5 mph - N/A   Clear
1:35 AM 54.3 °F - 36.5 °F 51% 30.01 in 10.0 mi Calm Calm - N/A   Clear
1:55 AM 54.1 °F - 36.0 °F 50% 30.00 in 10.0 mi NNW 3.5 mph - N/A   Clear
2:15 AM 52.9 °F - 35.1 °F 51% 30.00 in 10.0 mi Calm Calm - N/A   Clear
2:35 AM 53.6 °F - 34.2 °F 48% 29.99 in 10.0 mi NW 3.5 mph - N/A   Clear
2:55 AM 52.5 °F - 33.3 °F 48% 29.98 in 10.0 mi NW 3.5 mph - N/A   Clear
3:15 AM 48.2 °F - 35.8 °F 62% 29.99 in 10.0 mi Calm Calm - N/A   Clear
3:35 AM 47.7 °F - 35.1 °F 62% 29.99 in 10.0 mi Calm Calm - N/A   Scattered Clouds
3:55 AM 48.2 °F - 35.2 °F 61% 30.00 in 10.0 mi Calm Calm - N/A   Scattered Clouds
4:15 AM 45.5 °F - 35.8 °F 69% 30.00 in 10.0 mi Calm Calm - N/A   Scattered Clouds
4:35 AM 46.8 °F - 36.0 °F 66% 30.01 in 10.0 mi Calm Calm - N/A   Scattered Clouds
4:55 AM 47.7 °F - 36.0 °F 64% 30.02 in 10.0 mi Calm Calm - N/A   Scattered Clouds
5:15 AM 43.5 °F - 36.0 °F 75% 30.01 in 10.0 mi Calm Calm - N/A   Clear
5:35 AM 44.1 °F - 36.1 °F 74% 30.01 in 10.0 mi Calm Calm - N/A   Scattered Clouds
5:55 AM 46.8 °F - 36.5 °F 67% 30.02 in 10.0 mi Calm Calm - N/A   Mostly Cloudy
6:15 AM 43.5 °F - 37.4 °F 79% 30.03 in 10.0 mi Calm Calm - N/A   Scattered Clouds
6:35 AM 46.6 °F - 37.2 °F 70% 30.03 in 10.0 mi Calm Calm - N/A   Mostly Cloudy
6:55 AM 44.2 °F 42.7 °F 39.6 °F 84% 30.03 in 10.0 mi NNE 3.5 mph - N/A   Overcast
7:15 AM 47.5 °F - 39.4 °F 73% 30.04 in 10.0 mi Calm Calm - N/A   Mostly Cloudy
7:35 AM 46.4 °F - 41.9 °F 84% 30.03 in 10.0 mi Calm Calm - N/A   Overcast
7:55 AM 48.2 °F - 40.6 °F 75% 30.05 in 10.0 mi Calm Calm - N/A   Overcast
8:15 AM 48.4 °F - 41.9 °F 78% 30.05 in 10.0 mi North 3.5 mph - N/A   Scattered Clouds
8:35 AM 47.7 °F - 41.2 °F 78% 30.04 in 10.0 mi Calm Calm - N/A Thunderstorm Mostly Cloudy
8:55 AM 48.6 °F - 42.3 °F 79% 30.06 in 10.0 mi SSW 3.5 mph - N/A Thunderstorm Overcast
9:15 AM 48.2 °F - 44.6 °F 87% 30.03 in 10.0 mi East 3.5 mph - N/A   Mostly Cloudy
9:35 AM 50.0 °F - 42.3 °F 75% 30.03 in 10.0 mi Calm Calm - N/A   Clear
9:55 AM 50.9 °F - 41.2 °F 69% 30.03 in 10.0 mi NNE 4.6 mph - N/A   Scattered Clouds
10:15 AM 53.2 °F - 40.6 °F 62% 30.03 in 10.0 mi Calm Calm - N/A   Scattered Clouds
10:35 AM 54.0 °F - 39.6 °F 58% 30.03 in 10.0 mi SW 3.5 mph - N/A   Mostly Cloudy
10:55 AM 54.1 °F - 40.8 °F 61% 30.03 in 10.0 mi Calm Calm - N/A   Overcast
11:15 AM 55.9 °F - 42.8 °F 61% 30.02 in 10.0 mi WSW 3.5 mph - N/A   Mostly Cloudy
11:35 AM 55.9 °F - 42.1 °F 60% 30.02 in 10.0 mi Calm Calm - N/A   Mostly Cloudy
11:55 AM 58.8 °F - 43.3 °F 56% 30.00 in 10.0 mi Calm Calm - N/A   Mostly Cloudy
12:15 PM 59.7 °F - 42.6 °F 53% 29.99 in 10.0 mi Calm Calm - N/A   Mostly Cloudy
12:35 PM 60.4 °F - 44.1 °F 55% 29.98 in 10.0 mi Calm Calm - N/A   Mostly Cloudy
12:55 PM 60.3 °F - 43.2 °F 53% 29.96 in 10.0 mi Calm Calm - N/A   Mostly Cloudy
1:15 PM 60.8 °F - 42.8 °F 52% 29.97 in 10.0 mi Calm Calm - N/A   Mostly Cloudy
1:35 PM 60.1 °F - 44.8 °F 57% 29.97 in 10.0 mi North 4.6 mph - N/A   Mostly Cloudy
1:55 PM 60.1 °F - 44.6 °F 57% 30.03 in 10.0 mi North 18.4 mph 24.2 mph N/A Thunderstorm Overcast
2:15 PM 54.7 °F - 44.1 °F 67% 30.02 in 10.0 mi NE 11.5 mph 24.2 mph N/A   Overcast
2:35 PM 57.6 °F - 46.0 °F 65% 29.99 in 10.0 mi ENE 6.9 mph - N/A   Scattered Clouds
2:55 PM 59.4 °F - 46.6 °F 63% 29.99 in 10.0 mi NE 4.6 mph - N/A Thunderstorm Thunderstorm
3:15 PM 59.5 °F - 46.8 °F 63% 29.96 in 10.0 mi ENE 5.8 mph - N/A   Scattered Clouds
3:35 PM 61.3 °F - 47.3 °F 60% 29.95 in 10.0 mi Calm Calm - N/A   Clear
3:55 PM 63.5 °F - 47.8 °F 57% 29.92 in 10.0 mi NNW 3.5 mph - N/A   Clear
4:15 PM 64.6 °F - 47.7 °F 54% 29.89 in 10.0 mi SW 3.5 mph - N/A   Clear
4:35 PM 66.2 °F - 47.1 °F 50% 29.89 in 10.0 mi Calm Calm - N/A   Clear
4:55 PM 66.4 °F - 49.1 °F 54% 29.91 in 10.0 mi North 6.9 mph - N/A   Clear
5:15 PM 64.8 °F - 51.3 °F 62% 29.90 in 10.0 mi ENE 5.8 mph - N/A   Clear
5:35 PM 66.6 °F - 50.0 °F 55% 29.89 in 10.0 mi ENE 3.5 mph - N/A   Clear
5:55 PM 67.6 °F - 48.6 °F 50% 29.89 in 10.0 mi SE 3.5 mph - N/A   Clear
6:15 PM 68.4 °F - 47.8 °F 48% 29.88 in 10.0 mi Calm Calm - N/A   Clear
6:35 PM 68.4 °F - 46.9 °F 46% 29.89 in 10.0 mi Calm Calm - N/A   Clear
6:55 PM 66.6 °F - 47.1 °F 50% 29.89 in 10.0 mi Calm Calm - N/A   Clear
7:15 PM 65.1 °F - 47.1 °F 52% 29.89 in 10.0 mi Calm Calm - N/A   Clear
7:35 PM 63.7 °F - 48.4 °F 57% 29.89 in 10.0 mi Calm Calm - N/A   Clear
7:55 PM 62.6 °F - 48.0 °F 59% 29.90 in 10.0 mi Calm Calm - N/A   Clear
8:15 PM 61.3 °F - 48.0 °F 62% 29.90 in 10.0 mi NE 3.5 mph - N/A   Clear
8:35 PM 60.6 °F - 48.2 °F 64% 29.90 in 10.0 mi NE 3.5 mph - N/A   Clear
8:55 PM 59.2 °F - 49.1 °F 69% 29.90 in 10.0 mi NNE 3.5 mph - N/A   Clear
9:15 PM 58.8 °F - 48.9 °F 70% 29.90 in 10.0 mi NE 3.5 mph - N/A   Clear
9:35 PM 58.3 °F - 48.9 °F 71% 29.91 in 10.0 mi NNE 4.6 mph - N/A   Clear
9:55 PM 56.5 °F - 48.6 °F 75% 29.91 in 10.0 mi Calm Calm - N/A   Clear
10:15 PM 56.7 °F - 48.4 °F 74% 29.92 in 10.0 mi North 5.8 mph - N/A   Clear
10:35 PM 54.7 °F - 48.2 °F 79% 29.92 in 10.0 mi North 5.8 mph - N/A   Clear
10:55 PM 54.3 °F - 48.2 °F 80% 29.92 in 10.0 mi North 3.5 mph - N/A   Clear
11:15 PM 53.8 °F - 47.7 °F 80% 29.92 in 10.0 mi NE 3.5 mph - N/A   Clear
11:35 PM 54.0 °F - 48.0 °F 80% 29.92 in 10.0 mi North 5.8 mph - N/A   Clear
11:55 PM 54.0 °F - 48.4 °F 81% 29.92 in 10.0 mi North 4.6 mph - N/A   Clear